#timestamp,LO_Frequency,Hit,StdDev 
1619204415.7,286047004.4,N
1619204435.5,286047001.3,N
1619204455.4,286047004.3,N
1619204475.2,286047004.0,N
1619204495.1,286047004.0,N
1619204496.0,286047004.0,N
1619204515.8,286047003.3,N
1619204535.6,286047003.5,N
1619204555.5,286047003.1,N
1619204575.3,286047003.8,N
1619204595.2,286047001.3,N
1619204615.9,286047003.1,N
1619204635.7,286047003.5,N
1619204655.6,286047004.1,Y
1619204675.4,286047000.8,P
1619204695.3,286047001.0,N
1619204715.1,286046999.7,N
1619204716.0,286046999.7,N
1619204735.8,286047000.9,N
1619204755.7,286047000.3,N
1619204775.5,286047000.3,N
1619204795.3,286047000.2,N
1619204815.2,286047000.2,N
1619204835.0,286047001.1,N
1619204835.9,286047001.1,N
1619204855.8,286047000.6,N
1619204875.6,286047001.0,N
1619204895.4,286047001.1,N
1619204915.3,286047000.9,N
1619204935.1,286046998.2,N
1619204955.8,286047000.6,N
1619204975.7,286047001.1,N
1619204995.5,286047000.8,N
1619205015.4,286046998.6,N
1619205035.2,286046998.7,N
1619205055.0,286046998.5,N
1619205055.9,286046998.5,N
1619205075.8,286047000.7,N
1619205095.6,286047000.9,N
1619205115.5,286046998.1,N
1619205135.3,286046998.5,N
1619205155.1,286047000.7,N
1619205175.9,286047000.7,N
1619205195.7,286047000.4,N
1619205215.5,286047001.0,N
1619205235.4,286046998.6,N
1619205255.2,286047001.1,N
1619205275.1,286046998.1,N
1619205276.0,286046998.1,N
1619205295.8,286046998.2,N
1619205315.6,286046998.2,N
1619205335.5,286047001.2,N
1619205355.3,286046998.5,N
1619205375.1,286046998.6,N
1619205395.9,286046999.1,N
1619205415.7,286046999.0,N
1619205435.6,286046998.3,N
1619205455.4,286046998.7,N
1619205475.2,286046996.6,N
1619205495.1,286046999.1,N
1619205496.0,286046999.1,N
1619205515.8,286046999.3,N
1619205535.7,286046999.0,N
1619205555.5,286046999.6,N
1619205575.3,286046999.0,N
1619205595.2,286046998.7,N
1619205615.9,286046998.9,N
1619205635.7,286046999.1,N
1619205655.6,286046999.4,N
1619205675.4,286046999.6,N
1619205695.3,286046996.6,Y
1619205715.1,286046998.9,P
1619205716.0,286046998.9,P
1619205735.8,286046999.2,P
1619205755.7,286046996.5,Y
1619205775.5,286046998.2,P
1619205795.3,286047001.1,N
1619205815.2,286047000.9,N
1619205835.0,286047000.7,N
1619205835.9,286047000.7,N
1619205855.8,286047000.0,N
1619205875.6,286047000.4,N
1619205895.4,286046998.5,N
1619205915.3,286047000.1,N
1619205935.1,286047000.4,N
1619205955.9,286047000.6,N
1619205975.7,286047001.2,N
1619205995.5,286047000.8,N
1619206015.4,286046998.4,N
1619206035.2,286046998.4,N
1619206055.0,286047000.8,N
1619206055.9,286047000.8,N
1619206075.8,286047001.0,N
1619206095.6,286046998.6,N
1619206115.5,286046998.6,N
1619206135.3,286046998.8,N
1619206155.1,286046998.6,N
1619206175.9,286047000.7,N
1619206195.7,286047000.7,N
1619206215.5,286046999.4,N
1619206235.4,286046998.9,N
1619206255.2,286046999.0,N
1619206275.1,286046998.4,N
1619206276.0,286046998.4,N
1619206295.8,286046998.9,N
1619206315.6,286046998.7,N
1619206335.5,286046999.0,N
1619206355.3,286046999.5,N
1619206375.1,286046999.3,N
1619206395.9,286046998.8,N
1619206415.7,286046998.9,N
1619206435.6,286046998.8,N
1619206455.4,286046998.8,N
1619206475.2,286046999.6,N
1619206495.1,286046999.5,N
1619206496.0,286046999.5,N
1619206515.8,286046998.8,N
1619206535.7,286046998.7,N
1619206555.5,286046998.8,N
1619206575.3,286046998.8,N
1619206595.2,286046998.7,N
1619206615.0,286046999.4,N
1619206615.9,286046999.4,N
1619206635.7,286046998.8,N
1619206655.6,286046999.0,N
1619206675.4,286046998.7,N
1619206695.3,286046998.4,Y
1619206715.1,286047000.9,P
1619206735.8,286046998.6,N
1619206755.7,286046998.2,N
1619206775.5,286047001.1,N
1619206795.4,286046998.5,N
1619206815.2,286046998.4,N
1619206835.0,286046998.8,N
1619206835.9,286046998.8,N
1619206855.8,286046998.4,N
1619206875.6,286046998.7,N
1619206895.4,286046998.8,N
1619206915.3,286046998.6,N
1619206935.1,286047001.2,N
1619206955.9,286046998.5,N
1619206975.7,286046998.8,N
1619206995.5,286046998.9,N
1619207015.4,286046998.9,N
1619207035.2,286046998.4,N
1619207055.1,286046998.2,N
1619207056.0,286046998.2,N
1619207075.8,286047001.2,N
1619207095.6,286047000.8,N
1619207115.5,286047001.2,N
1619207135.3,286046998.7,N
1619207155.2,286046998.3,N
1619207175.9,286046998.4,N
1619207195.7,286046998.5,N
1619207215.6,286046998.7,N
1619207235.4,286046999.5,N
1619207255.2,286046998.8,N
1619207275.1,286046998.9,N
1619207276.0,286046998.9,N
1619207295.8,286046999.2,N
1619207315.7,286046998.7,N
1619207335.5,286046998.7,N
1619207355.3,286046998.6,N
1619207375.2,286046998.7,N
1619207395.0,286046998.3,N
1619207395.9,286046998.3,N
1619207415.7,286046998.4,N
1619207435.6,286046998.4,N
1619207455.4,286046998.8,N
1619207475.3,286046998.7,N
1619207495.1,286046999.3,N
1619207515.8,286046998.8,N
1619207535.7,286046998.6,N
1619207555.5,286046998.6,N
1619207575.4,286047001.2,N
1619207595.2,286046998.8,N
1619207615.0,286046998.4,N
1619207615.9,286046998.4,N
1619207635.8,286046998.7,N
1619207655.6,286046998.9,N
1619207675.5,286046999.0,N
1619207695.3,286046998.7,N
1619207715.1,286046999.5,N
1619207735.9,286046999.3,N
1619207755.7,286046998.9,N
1619207775.5,286046998.8,N
1619207795.4,286046999.5,N
1619207815.2,286046998.7,N
1619207835.1,286046999.0,N
1619207836.0,286046999.0,N
1619207855.8,286046998.9,N
1619207875.6,286046998.8,N
1619207895.5,286046998.9,N
1619207915.3,286046999.0,N
1619207935.1,286046999.3,N
1619207955.9,286046999.0,N
1619207975.7,286046999.0,N
1619207995.6,286046999.0,N
